YO8KGT-13 Weather Reports


Display with metric or nautical units.
time (UTC)temp
F
wind
direction
speed
MPH
gust
MPH
rain 1hr
in
rain 24hr
in
rain mn
in
humidity
%
barometer
mb
20201026124823 60 68 0.0 2.0 0.00 0.00 0.00 87 1010.0
20201026123818 60 112 0.0 5.0 0.00 0.00 0.00 87 1010.0
20201026122818 60 68 0.0 4.0 0.00 0.00 0.00 87 1010.0
20201026121818 60 68 0.0 4.0 0.00 0.00 0.00 87 1010.0
20201026120835 60 68 3.0 3.0 0.00 0.00 0.00 88 1009.0
20201026115817 60 68 2.0 2.0 0.00 0.00 0.00 89 1009.0
20201026114818 60 68 0.0 2.0 0.00 0.00 0.00 89 1009.0
20201026113818 60 68 0.0 2.0 0.00 0.00 0.00 89 1010.0
20201026112819 60 68 0.0 2.0 0.00 0.00 0.00 90 1010.0
20201026111818 60 68 0.0 0.0 0.00 0.00 0.00 90 1010.0
20201026110819 59 68 0.0 1.0 0.00 0.00 0.00 90 1010.0
20201026105821 59 68 0.0 2.0 0.00 0.00 0.00 90 1010.0
20201026104818 59 68 0.0 0.0 0.00 0.00 0.00 90 1010.0
20201026103817 59 68 0.0 0.0 0.00 0.00 0.00 90 1010.0
20201026102819 59 68 0.0 0.0 0.00 0.00 0.00 91 1010.0
20201026101817 59 68 0.0 0.0 0.00 0.00 0.00 91 1011.0
20201026100819 58 68 0.0 2.0 0.00 0.00 0.00 91 1011.0
20201026095817 58 68 0.0 2.0 0.00 0.00 0.00 91 1011.0
20201026094819 57 68 0.0 1.0 0.00 0.00 0.00 91 1011.0
20201026093820 57 225 0.0 1.0 0.00 0.00 0.00 91 1011.0
20201026092819 56 225 0.0 0.0 0.00 0.00 0.00 91 1011.0
20201026091817 56 180 0.0 4.0 0.00 0.00 0.00 91 1011.0
20201026090818 56 90 0.0 0.0 0.00 0.00 0.00 91 1011.0
20201026085818 56 90 0.0 0.0 0.00 0.02 0.00 91 1011.0
20201026084818 56 90 0.0 0.0 0.00 0.02 0.00 91 1011.0
20201026083838 56 90 0.0 0.0 0.00 0.02 0.00 91 1011.0
20201026082817 55 90 0.0 2.0 0.00 0.02 0.00 91 1011.0
20201026081817 55 112 0.0 0.0 0.00 0.02 0.00 91 1011.0
20201026080822 54 112 1.0 2.0 0.00 0.02 0.00 91 1011.0
20201026075818 54 112 0.0 0.0 0.00 0.06 0.00 91 1011.0
20201026074820 53 112 0.0 0.0 0.00 0.06 0.00 91 1011.0
20201026073820 53 112 0.0 0.0 0.00 0.06 0.00 91 1011.0
20201026072833 53 112 0.0 0.0 0.00 0.06 0.00 91 1011.0
20201026071817 53 112 0.0 0.0 0.00 0.06 0.00 91 1011.0
20201026070821 53 112 0.0 0.0 0.00 0.06 0.00 91 1011.0
20201026065818 52 112 0.0 0.0 0.00 0.10 0.00 91 1011.0
20201026064817 52 112 0.0 3.0 0.00 0.10 0.00 91 1011.0
20201026063821 52 112 0.0 0.0 0.00 0.10 0.00 91 1011.0
20201026062819 52 112 0.0 2.0 0.00 0.10 0.00 91 1011.0
20201026061817 52 112 0.0 0.0 0.00 0.10 0.00 91 1011.0
20201026060820 52 112 0.0 0.0 0.00 0.10 0.00 91 1011.0
20201026055817 52 112 0.0 0.0 0.00 0.10 0.00 91 1011.0
20201026054820 52 112 0.0 0.0 0.00 0.10 0.00 91 1011.0
20201026053819 52 112 0.0 0.0 0.00 0.10 0.00 91 1011.0
20201026052816 52 112 0.0 0.0 0.00 0.10 0.00 91 1011.0
20201026051816 53 112 0.0 0.0 0.00 0.10 0.00 91 1011.0
20201026050818 53 112 0.0 0.0 0.00 0.10 0.00 91 1011.0
20201026045818 53 112 0.0 0.0 0.00 0.14 0.00 91 1011.0
20201026044819 53 112 0.0 2.0 0.00 0.14 0.00 91 1011.0
20201026043817 53 112 0.0 2.0 0.00 0.14 0.00 91 1011.0
20201026042820 53 112 0.0 0.0 0.00 0.14 0.00 91 1011.0
20201026041817 53 112 0.0 0.0 0.00 0.14 0.00 91 1011.0
20201026040817 53 112 0.0 0.0 0.00 0.14 0.00 91 1011.0
20201026035816 53 112 0.0 0.0 0.00 0.16 0.00 91 1011.0
20201026034819 53 112 0.0 0.0 0.00 0.16 0.00 91 1011.0
20201026033817 53 112 0.0 0.0 0.00 0.16 0.00 91 1011.0
20201026032818 53 112 0.0 0.0 0.00 0.16 0.00 91 1011.0
20201026031818 53 112 0.0 0.0 0.00 0.16 0.00 91 1011.0
20201026030818 53 112 0.0 0.0 0.00 0.16 0.00 91 1011.0
20201026025820 53 112 0.0 0.0 0.00 0.18 0.00 91 1011.0
20201026024821 53 112 0.0 0.0 0.00 0.18 0.00 91 1011.0
20201026023817 53 112 0.0 0.0 0.00 0.18 0.00 91 1011.0
20201026022817 53 112 0.0 0.0 0.00 0.18 0.00 91 1011.0
20201026021823 53 112 0.0 0.0 0.00 0.18 0.00 91 1011.0
20201026020821 53 112 0.0 0.0 0.00 0.18 0.00 91 1011.0
20201026015818 53 112 0.0 0.0 0.00 0.18 0.00 91 1011.0
20201026014817 53 112 0.0 0.0 0.00 0.18 0.00 91 1011.0
20201026013818 53 112 0.0 0.0 0.00 0.18 0.00 91 1011.0
20201026012820 53 112 0.0 0.0 0.00 0.18 0.00 90 1011.0
20201026011817 53 112 0.0 0.0 0.00 0.18 0.00 90 1011.0
20201026010818 53 112 0.0 0.0 0.00 0.18 0.00 91 1012.0
20201026005816 53 112 0.0 2.0 0.00 0.22 0.00 90 1012.0
20201026004822 53 112 0.0 0.0 0.00 0.22 0.00 91 1012.0
20201026003817 53 112 0.0 0.0 0.00 0.22 0.00 90 1012.0
20201026002824 53 112 0.0 0.0 0.00 0.22 0.00 90 1012.0
20201026001818 53 112 0.0 0.0 0.00 0.22 0.00 90 1012.0
20201026000818 53 112 0.0 0.0 0.00 0.22 0.00 90 1012.0
20201025235819 53 112 0.0 0.0 0.00 0.24 0.00 90 1012.0
20201025234817 53 112 0.0 0.0 0.00 0.24 0.00 90 1012.0
20201025233818 53 112 0.0 0.0 0.00 0.24 0.00 90 1012.0
20201025232817 53 112 0.0 0.0 0.00 0.24 0.00 90 1012.0
20201025231819 53 112 0.0 0.0 0.00 0.24 0.00 90 1012.0
20201025230816 53 112 0.0 0.0 0.00 0.24 0.00 90 1012.0
20201025225824 53 112 0.0 0.0 0.00 0.24 0.00 90 1012.0
20201025224819 53 112 0.0 0.0 0.00 0.24 0.00 90 1012.0
20201025223818 53 112 0.0 0.0 0.00 0.24 0.00 91 1012.0
20201025222819 53 112 0.0 0.0 0.00 0.24 0.00 91 1012.0
20201025221818 53 112 0.0 0.0 0.00 0.24 0.00 90 1012.0
20201025220817 53 112 0.0 0.0 0.00 0.24 0.00 90 1012.0
20201025215816 53 112 0.0 0.0 0.00 0.24 0.22 91 1012.0
20201025214818 53 112 0.0 4.0 0.00 0.24 0.22 91 1012.0
20201025213817 53 112 0.0 0.0 0.00 0.24 0.22 90 1012.0
20201025212818 53 112 0.0 2.0 0.00 0.24 0.22 90 1012.0
20201025211821 53 112 0.0 1.0 0.00 0.24 0.22 90 1012.0
20201025210816 53 112 0.0 2.0 0.00 0.24 0.22 90 1012.0
20201025205816 53 112 0.0 2.0 0.00 0.24 0.22 90 1012.0
20201025204819 53 112 0.0 0.0 0.00 0.24 0.22 90 1012.0
20201025203818 53 112 0.0 0.0 0.00 0.24 0.22 90 1012.0
20201025202817 53 112 0.0 0.0 0.00 0.24 0.22 90 1012.0
20201025201818 53 112 0.0 0.0 0.00 0.24 0.22 90 1012.0
20201025200817 53 112 0.0 0.0 0.00 0.24 0.22 90 1012.0
20201025195818 53 112 0.0 0.0 0.00 0.24 0.22 90 1013.0
20201025194817 53 112 0.0 0.0 0.00 0.24 0.22 90 1013.0
20201025193816 53 112 0.0 2.0 0.00 0.24 0.22 90 1013.0
20201025192818 53 112 0.0 0.0 0.00 0.24 0.22 90 1013.0
20201025191817 53 112 0.0 0.0 0.00 0.24 0.22 90 1013.0
20201025190821 53 112 0.0 0.0 0.00 0.24 0.22 90 1013.0
20201025185816 53 112 0.0 0.0 0.00 0.24 0.22 90 1013.0
20201025184820 53 112 0.0 0.0 0.00 0.24 0.22 90 1013.0
20201025183817 53 112 0.0 0.0 0.00 0.24 0.22 90 1013.0
20201025182820 53 112 0.0 0.0 0.00 0.24 0.22 90 1013.0
20201025181817 53 112 0.0 1.0 0.00 0.24 0.22 90 1013.0
20201025180817 53 112 0.0 0.0 0.00 0.24 0.22 90 1013.0
20201025175816 53 112 0.0 0.0 0.00 0.24 0.22 90 1013.0
20201025174817 53 112 0.0 1.0 0.00 0.24 0.22 90 1013.0
20201025173816 53 112 0.0 1.0 0.00 0.24 0.22 90 1013.0
20201025172817 53 112 0.0 1.0 0.00 0.24 0.22 90 1013.0
20201025171820 53 112 0.0 1.0 0.00 0.24 0.22 90 1013.0
20201025170823 53 225 0.0 0.0 0.00 0.24 0.22 90 1013.0
20201025165903 53 248 0.0 0.0 0.00 0.24 0.22 90 1013.0
20201025164817 54 225 0.0 0.0 0.00 0.24 0.22 90 1013.0
20201025163819 54 270 0.0 0.0 0.00 0.24 0.22 90 1013.0
20201025162818 54 270 0.0 0.0 0.00 0.24 0.22 90 1013.0
20201025161816 54 270 0.0 1.0 0.00 0.24 0.22 90 1013.0
20201025160817 54 270 0.0 0.0 0.00 0.24 0.22 90 1013.0
20201025155820 54 270 0.0 0.0 0.00 0.24 0.22 90 1013.0
20201025154817 54 270 0.0 0.0 0.00 0.24 0.22 90 1013.0
20201025153819 54 270 0.0 0.0 0.00 0.24 0.22 90 1013.0
20201025152816 54 270 0.0 0.0 0.00 0.24 0.22 90 1013.0
20201025151818 54 270 0.0 0.0 0.00 0.24 0.22 90 1013.0
20201025150817 54 270 0.0 0.0 0.00 0.24 0.22 90 1013.0
20201025145818 54 270 0.0 0.0 0.00 0.24 0.22 90 1013.0
20201025144818 54 270 0.0 0.0 0.00 0.24 0.22 90 1013.0
20201025143819 54 270 0.0 0.0 0.00 0.24 0.22 90 1013.0
20201025142818 54 270 0.0 0.0 0.00 0.24 0.22 90 1013.0
20201025141822 54 270 0.0 0.0 0.00 0.24 0.22 90 1013.0
20201025140816 54 270 0.0 0.0 0.00 0.24 0.22 90 1013.0
20201025135825 54 270 0.0 0.0 0.00 0.24 0.22 90 1013.0
20201025134817 54 270 0.0 0.0 0.00 0.24 0.22 90 1013.0
20201025133818 54 270 0.0 0.0 0.00 0.24 0.22 90 1013.0
20201025132816 54 270 0.0 0.0 0.00 0.24 0.22 90 1013.0
20201025131816 54 270 0.0 0.0 0.00 0.24 0.22 90 1013.0
20201025130825 54 270 0.0 0.0 0.00 0.24 0.22 90 1013.0
20201025125817 54 270 0.0 0.0 0.00 0.24 0.22 90 1013.0